Weather

DAILY 7 DAY TOTAL
onrain

Note: Some stations are located near irrigated fields and may also report irrigation

Alliston Mount Forest Blyth Guelph Grand Bend Strathroy Woodstock Belmont Simcoe Leamington Chatham West Lorne






Simcoe-Research Station - Historical Weather Data
Date Max Temp (°C) Min Temp (°C) Avg Temp (°C) Rain (mm) 7Day Rain(mm) Total Rain(mm) Avg RH (%)
7/20/2018 30.3 16.1 23.2 4.4 8.0 211.4 73.5
7/19/2018 26.7 9.6 19.3 0.0 3.6 207.0 63.7
7/18/2018 25.0 13.7 19.6 0.0 3.6 207.0 69.2
7/17/2018 27.3 17.1 22.8 0.0 3.6 207.0 64.1
7/16/2018 31.7 20.2 25.7 0.0 3.6 207.0 79.5
7/15/2018 29.7 19.4 24.6 0.0 3.6 207.0 84.4
7/14/2018 30.0 19.8 23.6 3.6 3.6 207.0 77.1
7/13/2018 29.6 17.3 24.0 0.0 0.0 203.4 62.6
7/12/2018 28.2 13.8 21.7 0.0 0.0 203.4 62.2
7/11/2018 27.1 15.1 21.1 0.0 0.2 203.4 60.6
7/10/2018 30.6 18.6 24.6 0.0 0.2 203.4 56.1
7/9/2018 29.5 13.7 22.7 0.0 0.2 203.4 67.3
7/8/2018 27.3 11.6 20.4 0.0 5.6 203.4 65.0
7/7/2018 24.1 12.7 19.0 0.0 5.6 203.4 57.4
7/6/2018 25.1 15.2 20.9 0.0 5.6 203.4 57.6
7/5/2018 31.5 21.6 26.2 0.2 5.6 203.4 85.9
7/4/2018 30.8 20.7 25.9 0.0 5.4 203.2 76.0
7/3/2018 30.9 18.6 24.9 0.0 12.8 203.2 67.8
7/2/2018 31.2 22.1 26.3 5.4 12.8 203.2 81.6
7/1/2018 32.0 21.1 26.8 0.0 7.6 197.8 76.3
6/30/2018 31.2 20.2 26.2 0.0 21.0 197.8 78.8
6/29/2018 30.0 17.3 24.5 0.0 25.0 197.8 73.8
6/28/2018 28.3 19.6 22.9 0.0 57.0 197.8 81.7
6/27/2018 21.7 17.2 19.7 7.4 57.0 197.8 96.1
6/26/2018 25.2 10.8 18.4 0.0 49.8 190.4 66.0
6/25/2018 23.0 12.9 17.5 0.2 49.8 190.4 75.1
6/24/2018 20.0 15.6 17.7 13.4 94.0 190.2 98.8
6/23/2018 22.4 16.6 18.6 4.0 80.6 176.8 94.5
6/22/2018 19.8 12.1 15.8 32.0 76.6 172.8 77.7
6/21/2018 22.1 13.6 18.1 0.0 44.6 140.8 73.0
6/20/2018 22.6 15.9 18.3 0.2 44.6 140.8 80.6
6/19/2018 24.7 16.3 20.5 0.0 71.4 140.6 78.6
6/18/2018 31.0 21.4 25.5 44.4 71.4 140.6 85.8
6/17/2018 30.6 14.9 23.8 0.0 27.0 96.2 70.5
6/16/2018 26.7 13.5 20.6 0.0 27.0 96.2 63.7
6/15/2018 24.8 9.4 18.2 0.0 27.2 96.2 60.4
6/14/2018 24.8 13.8 19.6 0.0 27.2 96.2 53.2
6/13/2018 27.4 16.0 21.2 27.0 27.2 96.2 80.4
6/12/2018 25.9 9.0 18.3 0.0 0.2 69.2 72.0
6/11/2018 24.1 11.8 18.2 0.0 0.6 69.2 46.6
6/10/2018 20.8 16.1 18.1 0.0 1.6 69.2 67.2
6/9/2018 21.6 12.8 17.5 0.2 4.8 69.2 71.8
6/8/2018 25.1 12.5 19.0 0.0 4.6 69.0 69.8
6/7/2018 23.6 8.9 17.0 0.0 5.0 69.0 70.7
6/6/2018 14.9 9.0 11.7 0.0 5.2 69.0 78.6
6/5/2018 16.0 10.4 13.0 0.4 5.2 69.0 76.1
6/4/2018 18.9 14.2 16.1 1.0 4.8 68.6 77.1
6/3/2018 24.2 13.2 18.1 3.2 3.8 67.6 87.4
6/2/2018 20.9 14.5 17.5 0.0 0.6 64.4 78.1
6/1/2018 27.9 19.6 23.5 0.4 0.6 64.4 79.5
5/31/2018 29.6 20.9 24.0 0.2 0.2 64.0 79.9
5/30/2018 29.8 16.7 23.8 0.0 0.0 63.8 64.5
5/29/2018 28.1 19.0 23.7 0.0 0.0 63.8 65.1
5/28/2018 30.7 17.8 24.8 0.0 3.2 63.8 68.8
5/27/2018 26.9 15.0 21.0 0.0 4.6 63.8 84.4
5/26/2018 28.2 16.1 21.1 0.0 4.6 63.8 65.8
5/25/2018 27.4 13.4 21.5 0.0 11.6 63.8 48.1
5/24/2018 27.7 9.7 20.0 0.0 11.6 63.8 54.9
5/23/2018 25.9 12.5 18.8 0.0 11.6 63.8 66.4
5/22/2018 21.4 13.2 16.3 3.2 11.6 63.8 88.7
5/21/2018 21.2 7.8 14.8 1.4 17.0 60.6 65.0
5/20/2018 20.0 12.2 16.2 0.0 16.0 59.2 83.2
5/19/2018 20.1 9.7 14.8 7.0 16.0 59.2 86.9
5/18/2018 16.9 9.4 13.5 0.0 20.6 52.2 51.1
5/17/2018 24.5 11.0 18.7 0.0 21.8 52.2 68.5
5/16/2018 22.7 9.5 16.3 0.0 29.6 52.2 71.9
5/15/2018 21.4 13.1 16.4 8.6 29.6 52.2 90.3
5/14/2018 22.0 9.1 15.3 0.4 21.0 43.6 83.8
5/13/2018 18.7 6.8 12.9 0.0 20.6 43.2 65.7
5/12/2018 14.3 4.7 8.9 11.6 31.6 43.2 67.3
5/11/2018 10.3 2.5 6.6 1.2 20.0 31.6 70.1
5/10/2018 19.6 8.5 16.5 7.8 26.6 30.4 76.1
5/9/2018 26.3 7.6 16.6 0.0 22.6 22.6 67.5
5/8/2018 22.0 5.3 13.6 0.0 22.6 22.6 60.2
5/7/2018 17.3 8.9 13.1 0.0 22.6 22.6 59.4
5/6/2018 21.3 9.4 14.0 11.0 22.6 22.6 78.4
5/5/2018 22.8 8.4 15.7 0.0 11.6 11.6 59.7
5/4/2018 23.8 8.9 15.9 7.8 12.2 11.6 81.6
5/3/2018 22.0 15.0 17.6 3.8 4.6 3.8 90.1
5/2/2018 25.6 16.1 21.1 0.0 0.8 0.0 46.1
5/1/2018 24.1 7.1 16.6 0.0 12.8 0.0 36.6